Location: LDNL
(36.4545°S, 141.6685°E)
Time: 11:42:52
(UTC+10:00)

Tiros 1 despin weight - Pass Details

Date: 17 August 2022
Orbit: 590 x 639 km, 48.2° (Epoch: 23 September)

Event Time Altitude Azimuth Distance (km) Brightness Sun altitude
Rises 04:09:55 0° 233° (SW) 2,953 - -37.5°
Reaches altitude 10° 04:12:19 10° 227° (SW) 2,046 - -37.0°
Maximum altitude 04:16:55 51° 151° (SSE) 816 - -36.1°
Exits shadow 04:19:56 20° 82° (E) 1,473 ? -35.5°
Drops below altitude 10° 04:21:31 10° 74° (ENE) 2,038 ? -35.2°
Sets 04:23:54 0° 69° (ENE) 2,942 ? -34.8°
